owner,sensor,date,latitude,longitude,vertical_datum,sea_water_practical_salinity,qcFlag 
WAVCIS,ioos:station:WAVCIS:CSI16:1,2011-02-01T00:00:00Z,29.4012,-89.0355,1.0,32.3,11111222 
WAVCIS,ioos:station:WAVCIS:CSI16:1,2011-02-01T00:15:00Z,29.4012,-89.0355,1.0,31.522,11111222 
WAVCIS,ioos:station:WAVCIS:CSI16:1,2011-02-01T00:30:00Z,29.4012,-89.0355,1.0,30.022,11111222 
WAVCIS,ioos:station:WAVCIS:CSI16:1,2011-02-01T00:45:00Z,29.4012,-89.0355,1.0,30.087,11111222 
WAVCIS,ioos:station:WAVCIS:CSI16:1,2011-02-01T01:00:00Z,29.4012,-89.0355,1.0,30.004,11111222 
WAVCIS,ioos:station:WAVCIS:CSI16:1,2011-02-01T01:15:00Z,29.4012,-89.0355,1.0,29.755,11111222 
WAVCIS,ioos:station:WAVCIS:CSI16:1,2011-02-01T01:30:00Z,29.4012,-89.0355,1.0,29.594,11111222 
WAVCIS,ioos:station:WAVCIS:CSI16:1,2011-02-01T01:45:00Z,29.4012,-89.0355,1.0,29.662,11111222 
WAVCIS,ioos:station:WAVCIS:CSI16:1,2011-02-01T02:00:00Z,29.4012,-89.0355,1.0,29.672,11111222 
WAVCIS,ioos:station:WAVCIS:CSI16:1,2011-02-01T02:15:00Z,29.4012,-89.0355,1.0,29.573,11111222 
WAVCIS,ioos:station:WAVCIS:CSI16:1,2011-02-01T02:30:00Z,29.4012,-89.0355,1.0,27.754,11111222 
WAVCIS,ioos:station:WAVCIS:CSI16:1,2011-02-01T02:45:00Z,29.4012,-89.0355,1.0,28.358,11111222 
WAVCIS,ioos:station:WAVCIS:CSI16:1,2011-02-01T03:00:00Z,29.4012,-89.0355,1.0,28.395,11111222 
WAVCIS,ioos:station:WAVCIS:CSI16:1,2011-02-01T03:15:00Z,29.4012,-89.0355,1.0,28.337,11111222 
WAVCIS,ioos:station:WAVCIS:CSI16:1,2011-02-01T03:30:00Z,29.4012,-89.0355,1.0,28.116,11111222 
WAVCIS,ioos:station:WAVCIS:CSI16:1,2011-02-01T03:45:00Z,29.4012,-89.0355,1.0,27.872,11111222 
WAVCIS,ioos:station:WAVCIS:CSI16:1,2011-02-01T04:00:00Z,29.4012,-89.0355,1.0,28.203,11111222 
WAVCIS,ioos:station:WAVCIS:CSI16:1,2011-02-01T04:15:00Z,29.4012,-89.0355,1.0,27.805,11111222 
WAVCIS,ioos:station:WAVCIS:CSI16:1,2011-02-01T04:30:00Z,29.4012,-89.0355,1.0,28.254,11111222 
WAVCIS,ioos:station:WAVCIS:CSI16:1,2011-02-01T04:45:00Z,29.4012,-89.0355,1.0,30.126,11111222 
WAVCIS,ioos:station:WAVCIS:CSI16:1,2011-02-01T05:00:00Z,29.4012,-89.0355,1.0,31.51,11111222 
WAVCIS,ioos:station:WAVCIS:CSI16:1,2011-02-01T05:15:00Z,29.4012,-89.0355,1.0,31.67,11111222 
WAVCIS,ioos:station:WAVCIS:CSI16:1,2011-02-01T05:30:00Z,29.4012,-89.0355,1.0,32.289,11111222 
WAVCIS,ioos:station:WAVCIS:CSI16:1,2011-02-01T05:45:00Z,29.4012,-89.0355,1.0,32.286,11111222 
WAVCIS,ioos:station:WAVCIS:CSI16:1,2011-02-01T06:00:00Z,29.4012,-89.0355,1.0,32.436,11111222 
WAVCIS,ioos:station:WAVCIS:CSI16:1,2011-02-01T06:15:00Z,29.4012,-89.0355,1.0,32.477,11111222 
WAVCIS,ioos:station:WAVCIS:CSI16:1,2011-02-01T06:30:00Z,29.4012,-89.0355,1.0,31.874,11111222 
WAVCIS,ioos:station:WAVCIS:CSI16:1,2011-02-01T06:45:00Z,29.4012,-89.0355,1.0,31.483,11111222 
WAVCIS,ioos:station:WAVCIS:CSI16:1,2011-02-01T07:00:00Z,29.4012,-89.0355,1.0,30.973,11111222 
WAVCIS,ioos:station:WAVCIS:CSI16:1,2011-02-01T07:15:00Z,29.4012,-89.0355,1.0,30.436,11111222 
WAVCIS,ioos:station:WAVCIS:CSI16:1,2011-02-01T07:30:00Z,29.4012,-89.0355,1.0,29.515,11111222 
WAVCIS,ioos:station:WAVCIS:CSI16:1,2011-02-01T07:45:00Z,29.4012,-89.0355,1.0,29.209,11111222 
WAVCIS,ioos:station:WAVCIS:CSI16:1,2011-02-01T08:00:00Z,29.4012,-89.0355,1.0,29.096,11111222 
WAVCIS,ioos:station:WAVCIS:CSI16:1,2011-02-01T08:15:00Z,29.4012,-89.0355,1.0,29.35,11111222 
WAVCIS,ioos:station:WAVCIS:CSI16:1,2011-02-01T08:30:00Z,29.4012,-89.0355,1.0,28.741,11111222 
WAVCIS,ioos:station:WAVCIS:CSI16:1,2011-02-01T08:45:00Z,29.4012,-89.0355,1.0,28.772,11111222 
WAVCIS,ioos:station:WAVCIS:CSI16:1,2011-02-01T09:00:00Z,29.4012,-89.0355,1.0,28.985,11111222 
WAVCIS,ioos:station:WAVCIS:CSI16:1,2011-02-01T09:15:00Z,29.4012,-89.0355,1.0,29.094,11111222 
WAVCIS,ioos:station:WAVCIS:CSI16:1,2011-02-01T09:30:00Z,29.4012,-89.0355,1.0,29.136,11111222 
WAVCIS,ioos:station:WAVCIS:CSI16:1,2011-02-01T09:45:00Z,29.4012,-89.0355,1.0,29.37,11111222 
WAVCIS,ioos:station:WAVCIS:CSI16:1,2011-02-01T10:00:00Z,29.4012,-89.0355,1.0,29.993,11111222 
WAVCIS,ioos:station:WAVCIS:CSI16:1,2011-02-01T10:15:00Z,29.4012,-89.0355,1.0,30.607,11111222 
WAVCIS,ioos:station:WAVCIS:CSI16:1,2011-02-01T10:30:00Z,29.4012,-89.0355,1.0,31.138,11111222 
WAVCIS,ioos:station:WAVCIS:CSI16:1,2011-02-01T10:45:00Z,29.4012,-89.0355,1.0,30.974,11111222 
WAVCIS,ioos:station:WAVCIS:CSI16:1,2011-02-01T11:00:00Z,29.4012,-89.0355,1.0,31.463,11111222 
WAVCIS,ioos:station:WAVCIS:CSI16:1,2011-02-01T11:15:00Z,29.4012,-89.0355,1.0,31.316,11111222 
WAVCIS,ioos:station:WAVCIS:CSI16:1,2011-02-01T11:30:00Z,29.4012,-89.0355,1.0,31.17,11111222 
WAVCIS,ioos:station:WAVCIS:CSI16:1,2011-02-01T11:45:00Z,29.4012,-89.0355,1.0,31.173,11111222 
WAVCIS,ioos:station:WAVCIS:CSI16:1,2011-02-01T12:00:00Z,29.4012,-89.0355,1.0,31.226,11111222 
WAVCIS,ioos:station:WAVCIS:CSI16:1,2011-02-01T12:15:00Z,29.4012,-89.0355,1.0,31.28,11111222 
WAVCIS,ioos:station:WAVCIS:CSI16:1,2011-02-01T12:30:00Z,29.4012,-89.0355,1.0,31.166,11111222 
WAVCIS,ioos:station:WAVCIS:CSI16:1,2011-02-01T12:45:00Z,29.4012,-89.0355,1.0,31.235,11111222 
WAVCIS,ioos:station:WAVCIS:CSI16:1,2011-02-01T13:00:00Z,29.4012,-89.0355,1.0,31.212,11111222 
WAVCIS,ioos:station:WAVCIS:CSI16:1,2011-02-01T13:15:00Z,29.4012,-89.0355,1.0,31.308,11111222 
WAVCIS,ioos:station:WAVCIS:CSI16:1,2011-02-01T13:30:00Z,29.4012,-89.0355,1.0,31.306,11111222 
WAVCIS,ioos:station:WAVCIS:CSI16:1,2011-02-01T13:45:00Z,29.4012,-89.0355,1.0,31.437,11111222 
WAVCIS,ioos:station:WAVCIS:CSI16:1,2011-02-01T14:00:00Z,29.4012,-89.0355,1.0,31.338,11111222 
WAVCIS,ioos:station:WAVCIS:CSI16:1,2011-02-01T14:15:00Z,29.4012,-89.0355,1.0,31.143,11111222 
WAVCIS,ioos:station:WAVCIS:CSI16:1,2011-02-01T14:30:00Z,29.4012,-89.0355,1.0,31.177,11111222 
WAVCIS,ioos:station:WAVCIS:CSI16:1,2011-02-01T14:45:00Z,29.4012,-89.0355,1.0,31.16,11111222 
WAVCIS,ioos:station:WAVCIS:CSI16:1,2011-02-01T15:00:00Z,29.4012,-89.0355,1.0,31.241,11111222 
WAVCIS,ioos:station:WAVCIS:CSI16:1,2011-02-01T15:15:00Z,29.4012,-89.0355,1.0,31.37,11111222 
WAVCIS,ioos:station:WAVCIS:CSI16:1,2011-02-01T15:30:00Z,29.4012,-89.0355,1.0,31.442,11111222 
WAVCIS,ioos:station:WAVCIS:CSI16:1,2011-02-01T15:45:00Z,29.4012,-89.0355,1.0,31.476,11111222 
WAVCIS,ioos:station:WAVCIS:CSI16:1,2011-02-01T16:00:00Z,29.4012,-89.0355,1.0,31.479,11111222 
WAVCIS,ioos:station:WAVCIS:CSI16:1,2011-02-01T16:15:00Z,29.4012,-89.0355,1.0,31.52,11111222 
WAVCIS,ioos:station:WAVCIS:CSI16:1,2011-02-01T16:30:00Z,29.4012,-89.0355,1.0,31.469,11111222 
WAVCIS,ioos:station:WAVCIS:CSI16:1,2011-02-01T16:45:00Z,29.4012,-89.0355,1.0,31.429,11111222 
WAVCIS,ioos:station:WAVCIS:CSI16:1,2011-02-01T17:00:00Z,29.4012,-89.0355,1.0,31.329,11111222 
WAVCIS,ioos:station:WAVCIS:CSI16:1,2011-02-01T17:15:00Z,29.4012,-89.0355,1.0,31.327,11111222 
WAVCIS,ioos:station:WAVCIS:CSI16:1,2011-02-01T17:30:00Z,29.4012,-89.0355,1.0,31.117,11111222 
WAVCIS,ioos:station:WAVCIS:CSI16:1,2011-02-01T17:45:00Z,29.4012,-89.0355,1.0,31.13,11111222 
WAVCIS,ioos:station:WAVCIS:CSI16:1,2011-02-01T18:00:00Z,29.4012,-89.0355,1.0,31.246,11111222 
WAVCIS,ioos:station:WAVCIS:CSI16:1,2011-02-01T18:15:00Z,29.4012,-89.0355,1.0,31.275,11111222 
WAVCIS,ioos:station:WAVCIS:CSI16:1,2011-02-01T18:30:00Z,29.4012,-89.0355,1.0,31.255,11111222 
WAVCIS,ioos:station:WAVCIS:CSI16:1,2011-02-01T18:45:00Z,29.4012,-89.0355,1.0,31.15,11111222 
WAVCIS,ioos:station:WAVCIS:CSI16:1,2011-02-01T19:00:00Z,29.4012,-89.0355,1.0,30.66,11111222 
WAVCIS,ioos:station:WAVCIS:CSI16:1,2011-02-01T19:15:00Z,29.4012,-89.0355,1.0,30.528,11111222 
WAVCIS,ioos:station:WAVCIS:CSI16:1,2011-02-01T19:30:00Z,29.4012,-89.0355,1.0,30.442,11111222 
WAVCIS,ioos:station:WAVCIS:CSI16:1,2011-02-01T19:45:00Z,29.4012,-89.0355,1.0,30.417,11111222 
WAVCIS,ioos:station:WAVCIS:CSI16:1,2011-02-01T20:00:00Z,29.4012,-89.0355,1.0,30.323,11111222 
WAVCIS,ioos:station:WAVCIS:CSI16:1,2011-02-01T20:15:00Z,29.4012,-89.0355,1.0,30.349,11111222 
WAVCIS,ioos:station:WAVCIS:CSI16:1,2011-02-01T20:30:00Z,29.4012,-89.0355,1.0,30.557,11111222 
WAVCIS,ioos:station:WAVCIS:CSI16:1,2011-02-01T20:45:00Z,29.4012,-89.0355,1.0,31.062,11111222 
WAVCIS,ioos:station:WAVCIS:CSI16:1,2011-02-01T21:00:00Z,29.4012,-89.0355,1.0,30.452,11111222 
WAVCIS,ioos:station:WAVCIS:CSI16:1,2011-02-01T21:15:00Z,29.4012,-89.0355,1.0,30.201,11111222 
WAVCIS,ioos:station:WAVCIS:CSI16:1,2011-02-01T21:30:00Z,29.4012,-89.0355,1.0,30.169,11111222 
WAVCIS,ioos:station:WAVCIS:CSI16:1,2011-02-01T21:45:00Z,29.4012,-89.0355,1.0,30.443,11111222 
WAVCIS,ioos:station:WAVCIS:CSI16:1,2011-02-01T22:00:00Z,29.4012,-89.0355,1.0,30.479,11111222 
WAVCIS,ioos:station:WAVCIS:CSI16:1,2011-02-01T22:15:00Z,29.4012,-89.0355,1.0,30.774,11111222 
WAVCIS,ioos:station:WAVCIS:CSI16:1,2011-02-01T22:30:00Z,29.4012,-89.0355,1.0,30.451,11111222 
WAVCIS,ioos:station:WAVCIS:CSI16:1,2011-02-01T22:45:00Z,29.4012,-89.0355,1.0,30.675,11111222 
WAVCIS,ioos:station:WAVCIS:CSI16:1,2011-02-01T23:00:00Z,29.4012,-89.0355,1.0,30.823,11111222 
WAVCIS,ioos:station:WAVCIS:CSI16:1,2011-02-01T23:15:00Z,29.4012,-89.0355,1.0,31.075,11111222 
WAVCIS,ioos:station:WAVCIS:CSI16:1,2011-02-01T23:30:00Z,29.4012,-89.0355,1.0,30.738,11111222 
WAVCIS,ioos:station:WAVCIS:CSI16:1,2011-02-01T23:45:00Z,29.4012,-89.0355,1.0,30.701,11111222 
WAVCIS,ioos:station:WAVCIS:CSI16:1,2011-02-02T00:00:00Z,29.4012,-89.0355,1.0,30.933,11111222 
WAVCIS,ioos:station:WAVCIS:CSI16:1,2011-02-02T00:15:00Z,29.4012,-89.0355,1.0,31.094,11111222 
WAVCIS,ioos:station:WAVCIS:CSI16:1,2011-02-02T00:30:00Z,29.4012,-89.0355,1.0,31.28,11111222 
WAVCIS,ioos:station:WAVCIS:CSI16:1,2011-02-02T00:45:00Z,29.4012,-89.0355,1.0,31.55,11111222 
WAVCIS,ioos:station:WAVCIS:CSI16:1,2011-02-02T01:00:00Z,29.4012,-89.0355,1.0,31.527,11111222 
WAVCIS,ioos:station:WAVCIS:CSI16:1,2011-02-02T01:15:00Z,29.4012,-89.0355,1.0,31.381,11111222 
WAVCIS,ioos:station:WAVCIS:CSI16:1,2011-02-02T01:30:00Z,29.4012,-89.0355,1.0,31.729,11111222 
WAVCIS,ioos:station:WAVCIS:CSI16:1,2011-02-02T01:45:00Z,29.4012,-89.0355,1.0,31.684,11111222 
WAVCIS,ioos:station:WAVCIS:CSI16:1,2011-02-02T02:00:00Z,29.4012,-89.0355,1.0,31.757,11111222 
WAVCIS,ioos:station:WAVCIS:CSI16:1,2011-02-02T02:15:00Z,29.4012,-89.0355,1.0,31.838,11111222 
WAVCIS,ioos:station:WAVCIS:CSI16:1,2011-02-02T02:30:00Z,29.4012,-89.0355,1.0,31.905,11111222 
WAVCIS,ioos:station:WAVCIS:CSI16:1,2011-02-02T02:45:00Z,29.4012,-89.0355,1.0,31.898,11111222 
WAVCIS,ioos:station:WAVCIS:CSI16:1,2011-02-02T03:00:00Z,29.4012,-89.0355,1.0,31.939,11111222 
WAVCIS,ioos:station:WAVCIS:CSI16:1,2011-02-02T03:15:00Z,29.4012,-89.0355,1.0,32.096,11111222 
WAVCIS,ioos:station:WAVCIS:CSI16:1,2011-02-02T03:30:00Z,29.4012,-89.0355,1.0,32.197,11111222 
WAVCIS,ioos:station:WAVCIS:CSI16:1,2011-02-02T03:45:00Z,29.4012,-89.0355,1.0,32.244,11111222 
WAVCIS,ioos:station:WAVCIS:CSI16:1,2011-02-02T04:00:00Z,29.4012,-89.0355,1.0,32.382,11111222 
WAVCIS,ioos:station:WAVCIS:CSI16:1,2011-02-02T04:15:00Z,29.4012,-89.0355,1.0,32.631,11111222 
WAVCIS,ioos:station:WAVCIS:CSI16:1,2011-02-02T04:30:00Z,29.4012,-89.0355,1.0,32.688,11111222 
WAVCIS,ioos:station:WAVCIS:CSI16:1,2011-02-02T04:45:00Z,29.4012,-89.0355,1.0,32.88,11111222 
WAVCIS,ioos:station:WAVCIS:CSI16:1,2011-02-02T05:00:00Z,29.4012,-89.0355,1.0,33.032,11111222 
WAVCIS,ioos:station:WAVCIS:CSI16:1,2011-02-02T05:15:00Z,29.4012,-89.0355,1.0,33.179,11111222 
WAVCIS,ioos:station:WAVCIS:CSI16:1,2011-02-02T05:30:00Z,29.4012,-89.0355,1.0,33.217,11111222 
WAVCIS,ioos:station:WAVCIS:CSI16:1,2011-02-02T05:45:00Z,29.4012,-89.0355,1.0,33.326,11111222 
WAVCIS,ioos:station:WAVCIS:CSI16:1,2011-02-02T06:00:00Z,29.4012,-89.0355,1.0,33.411,11111222 
WAVCIS,ioos:station:WAVCIS:CSI16:1,2011-02-02T06:15:00Z,29.4012,-89.0355,1.0,33.329,11111222 
WAVCIS,ioos:station:WAVCIS:CSI16:1,2011-02-02T06:30:00Z,29.4012,-89.0355,1.0,33.341,11111222 
WAVCIS,ioos:station:WAVCIS:CSI16:1,2011-02-02T06:45:00Z,29.4012,-89.0355,1.0,33.356,11111222 
WAVCIS,ioos:station:WAVCIS:CSI16:1,2011-02-02T07:00:00Z,29.4012,-89.0355,1.0,33.174,11111222 
WAVCIS,ioos:station:WAVCIS:CSI16:1,2011-02-02T07:15:00Z,29.4012,-89.0355,1.0,32.866,11111222 
WAVCIS,ioos:station:WAVCIS:CSI16:1,2011-02-02T07:30:00Z,29.4012,-89.0355,1.0,32.859,11111222 
WAVCIS,ioos:station:WAVCIS:CSI16:1,2011-02-02T07:45:00Z,29.4012,-89.0355,1.0,32.426,11111222 
WAVCIS,ioos:station:WAVCIS:CSI16:1,2011-02-02T08:00:00Z,29.4012,-89.0355,1.0,32.375,11111222 
WAVCIS,ioos:station:WAVCIS:CSI16:1,2011-02-02T08:15:00Z,29.4012,-89.0355,1.0,32.484,11111222 
WAVCIS,ioos:station:WAVCIS:CSI16:1,2011-02-02T08:30:00Z,29.4012,-89.0355,1.0,32.494,11111222 
WAVCIS,ioos:station:WAVCIS:CSI16:1,2011-02-02T08:45:00Z,29.4012,-89.0355,1.0,32.284,11111222 
WAVCIS,ioos:station:WAVCIS:CSI16:1,2011-02-02T09:00:00Z,29.4012,-89.0355,1.0,32.406,11111222 
WAVCIS,ioos:station:WAVCIS:CSI16:1,2011-02-02T09:15:00Z,29.4012,-89.0355,1.0,32.601,11111222 
WAVCIS,ioos:station:WAVCIS:CSI16:1,2011-02-02T09:30:00Z,29.4012,-89.0355,1.0,32.49,11111222 
WAVCIS,ioos:station:WAVCIS:CSI16:1,2011-02-02T09:45:00Z,29.4012,-89.0355,1.0,32.464,11111222 
WAVCIS,ioos:station:WAVCIS:CSI16:1,2011-02-02T10:00:00Z,29.4012,-89.0355,1.0,32.541,11111222 
WAVCIS,ioos:station:WAVCIS:CSI16:1,2011-02-02T10:15:00Z,29.4012,-89.0355,1.0,31.976,11111222 
WAVCIS,ioos:station:WAVCIS:CSI16:1,2011-02-02T10:30:00Z,29.4012,-89.0355,1.0,31.588,11111222 
WAVCIS,ioos:station:WAVCIS:CSI16:1,2011-02-02T10:45:00Z,29.4012,-89.0355,1.0,30.733,11111222 
WAVCIS,ioos:station:WAVCIS:CSI16:1,2011-02-02T11:00:00Z,29.4012,-89.0355,1.0,30.587,11111222 
WAVCIS,ioos:station:WAVCIS:CSI16:1,2011-02-02T11:15:00Z,29.4012,-89.0355,1.0,30.639,11111222 
WAVCIS,ioos:station:WAVCIS:CSI16:1,2011-02-02T11:30:00Z,29.4012,-89.0355,1.0,30.648,11111222 
WAVCIS,ioos:station:WAVCIS:CSI16:1,2011-02-02T11:45:00Z,29.4012,-89.0355,1.0,30.68,11111222 
WAVCIS,ioos:station:WAVCIS:CSI16:1,2011-02-02T12:00:00Z,29.4012,-89.0355,1.0,30.615,11111222 
WAVCIS,ioos:station:WAVCIS:CSI16:1,2011-02-02T12:15:00Z,29.4012,-89.0355,1.0,30.513,11111222 
WAVCIS,ioos:station:WAVCIS:CSI16:1,2011-02-02T12:30:00Z,29.4012,-89.0355,1.0,30.509,11111222 
WAVCIS,ioos:station:WAVCIS:CSI16:1,2011-02-02T12:45:00Z,29.4012,-89.0355,1.0,30.385,11111222 
WAVCIS,ioos:station:WAVCIS:CSI16:1,2011-02-02T13:00:00Z,29.4012,-89.0355,1.0,30.436,11111222 
WAVCIS,ioos:station:WAVCIS:CSI16:1,2011-02-02T13:15:00Z,29.4012,-89.0355,1.0,30.445,11111222 
WAVCIS,ioos:station:WAVCIS:CSI16:1,2011-02-02T13:30:00Z,29.4012,-89.0355,1.0,30.596,11111222 
WAVCIS,ioos:station:WAVCIS:CSI16:1,2011-02-02T13:45:00Z,29.4012,-89.0355,1.0,30.76,11111222 
WAVCIS,ioos:station:WAVCIS:CSI16:1,2011-02-02T14:00:00Z,29.4012,-89.0355,1.0,30.893,11111222 
WAVCIS,ioos:station:WAVCIS:CSI16:1,2011-02-02T14:15:00Z,29.4012,-89.0355,1.0,31.115,11111222 
WAVCIS,ioos:station:WAVCIS:CSI16:1,2011-02-02T14:30:00Z,29.4012,-89.0355,1.0,31.331,11111222 
WAVCIS,ioos:station:WAVCIS:CSI16:1,2011-02-02T14:45:00Z,29.4012,-89.0355,1.0,31.588,11111222 
WAVCIS,ioos:station:WAVCIS:CSI16:1,2011-02-02T15:00:00Z,29.4012,-89.0355,1.0,31.804,11111222 
WAVCIS,ioos:station:WAVCIS:CSI16:1,2011-02-02T15:15:00Z,29.4012,-89.0355,1.0,31.897,11111222 
WAVCIS,ioos:station:WAVCIS:CSI16:1,2011-02-02T15:30:00Z,29.4012,-89.0355,1.0,31.965,11111222 
WAVCIS,ioos:station:WAVCIS:CSI16:1,2011-02-02T15:45:00Z,29.4012,-89.0355,1.0,31.921,11111222 
WAVCIS,ioos:station:WAVCIS:CSI16:1,2011-02-02T16:00:00Z,29.4012,-89.0355,1.0,31.978,11111222 
WAVCIS,ioos:station:WAVCIS:CSI16:1,2011-02-02T16:15:00Z,29.4012,-89.0355,1.0,32.047,11111222 
WAVCIS,ioos:station:WAVCIS:CSI16:1,2011-02-02T16:30:00Z,29.4012,-89.0355,1.0,32.078,11111222 
WAVCIS,ioos:station:WAVCIS:CSI16:1,2011-02-02T16:45:00Z,29.4012,-89.0355,1.0,31.749,11111222 
WAVCIS,ioos:station:WAVCIS:CSI16:1,2011-02-02T17:00:00Z,29.4012,-89.0355,1.0,31.736,11111222 
WAVCIS,ioos:station:WAVCIS:CSI16:1,2011-02-02T17:15:00Z,29.4012,-89.0355,1.0,31.771,11111222 
WAVCIS,ioos:station:WAVCIS:CSI16:1,2011-02-02T17:30:00Z,29.4012,-89.0355,1.0,31.712,11111222 
WAVCIS,ioos:station:WAVCIS:CSI16:1,2011-02-02T17:45:00Z,29.4012,-89.0355,1.0,31.715,11111222 
WAVCIS,ioos:station:WAVCIS:CSI16:1,2011-02-02T18:00:00Z,29.4012,-89.0355,1.0,31.718,11111222 
WAVCIS,ioos:station:WAVCIS:CSI16:1,2011-02-02T18:15:00Z,29.4012,-89.0355,1.0,31.699,11111222 
WAVCIS,ioos:station:WAVCIS:CSI16:1,2011-02-02T18:30:00Z,29.4012,-89.0355,1.0,31.678,11111222 
WAVCIS,ioos:station:WAVCIS:CSI16:1,2011-02-02T18:45:00Z,29.4012,-89.0355,1.0,31.653,11111222 
WAVCIS,ioos:station:WAVCIS:CSI16:1,2011-02-02T19:00:00Z,29.4012,-89.0355,1.0,31.671,11111222 
WAVCIS,ioos:station:WAVCIS:CSI16:1,2011-02-02T19:15:00Z,29.4012,-89.0355,1.0,31.714,11111222 
WAVCIS,ioos:station:WAVCIS:CSI16:1,2011-02-02T19:30:00Z,29.4012,-89.0355,1.0,31.736,11111222 
WAVCIS,ioos:station:WAVCIS:CSI16:1,2011-02-02T19:45:00Z,29.4012,-89.0355,1.0,31.751,11111222 
WAVCIS,ioos:station:WAVCIS:CSI16:1,2011-02-02T20:00:00Z,29.4012,-89.0355,1.0,31.829,11111222 
WAVCIS,ioos:station:WAVCIS:CSI16:1,2011-02-02T20:15:00Z,29.4012,-89.0355,1.0,31.867,11111222 
WAVCIS,ioos:station:WAVCIS:CSI16:1,2011-02-02T20:30:00Z,29.4012,-89.0355,1.0,31.928,11111222 
WAVCIS,ioos:station:WAVCIS:CSI16:1,2011-02-02T20:45:00Z,29.4012,-89.0355,1.0,32.034,11111222 
WAVCIS,ioos:station:WAVCIS:CSI16:1,2011-02-02T21:00:00Z,29.4012,-89.0355,1.0,32.077,11111222 
WAVCIS,ioos:station:WAVCIS:CSI16:1,2011-02-02T21:15:00Z,29.4012,-89.0355,1.0,32.099,11111222 
WAVCIS,ioos:station:WAVCIS:CSI16:1,2011-02-02T21:30:00Z,29.4012,-89.0355,1.0,32.188,11111222 
WAVCIS,ioos:station:WAVCIS:CSI16:1,2011-02-02T21:45:00Z,29.4012,-89.0355,1.0,32.236,11111222 
WAVCIS,ioos:station:WAVCIS:CSI16:1,2011-02-02T22:00:00Z,29.4012,-89.0355,1.0,32.262,11111222 
WAVCIS,ioos:station:WAVCIS:CSI16:1,2011-02-02T22:15:00Z,29.4012,-89.0355,1.0,32.271,11111222 
WAVCIS,ioos:station:WAVCIS:CSI16:1,2011-02-02T22:30:00Z,29.4012,-89.0355,1.0,32.263,11111222 
WAVCIS,ioos:station:WAVCIS:CSI16:1,2011-02-02T22:45:00Z,29.4012,-89.0355,1.0,32.249,11111222 
WAVCIS,ioos:station:WAVCIS:CSI16:1,2011-02-02T23:00:00Z,29.4012,-89.0355,1.0,32.22,11111222 
WAVCIS,ioos:station:WAVCIS:CSI16:1,2011-02-02T23:15:00Z,29.4012,-89.0355,1.0,32.199,11111222 
WAVCIS,ioos:station:WAVCIS:CSI16:1,2011-02-02T23:30:00Z,29.4012,-89.0355,1.0,32.196,11111222 
WAVCIS,ioos:station:WAVCIS:CSI16:1,2011-02-02T23:45:00Z,29.4012,-89.0355,1.0,32.182,11111222 
WAVCIS,ioos:station:WAVCIS:CSI16:1,2011-02-03T00:00:00Z,29.4012,-89.0355,1.0,32.176,11111222 
WAVCIS,ioos:station:WAVCIS:CSI16:1,2011-02-03T00:15:00Z,29.4012,-89.0355,1.0,32.159,11111222 
WAVCIS,ioos:station:WAVCIS:CSI16:1,2011-02-03T00:30:00Z,29.4012,-89.0355,1.0,32.124,11111222 
WAVCIS,ioos:station:WAVCIS:CSI16:1,2011-02-03T00:45:00Z,29.4012,-89.0355,1.0,32.122,11111222 
WAVCIS,ioos:station:WAVCIS:CSI16:1,2011-02-03T01:00:00Z,29.4012,-89.0355,1.0,32.117,11111222 
WAVCIS,ioos:station:WAVCIS:CSI16:1,2011-02-03T01:15:00Z,29.4012,-89.0355,1.0,32.108,11111222 
WAVCIS,ioos:station:WAVCIS:CSI16:1,2011-02-03T01:30:00Z,29.4012,-89.0355,1.0,32.112,11111222 
WAVCIS,ioos:station:WAVCIS:CSI16:1,2011-02-03T01:45:00Z,29.4012,-89.0355,1.0,32.102,11111222 
WAVCIS,ioos:station:WAVCIS:CSI16:1,2011-02-03T02:00:00Z,29.4012,-89.0355,1.0,32.109,11111222 
WAVCIS,ioos:station:WAVCIS:CSI16:1,2011-02-03T02:15:00Z,29.4012,-89.0355,1.0,32.118,11111222 
WAVCIS,ioos:station:WAVCIS:CSI16:1,2011-02-03T02:30:00Z,29.4012,-89.0355,1.0,32.12,11111222 
WAVCIS,ioos:station:WAVCIS:CSI16:1,2011-02-03T02:45:00Z,29.4012,-89.0355,1.0,32.124,11111222 
WAVCIS,ioos:station:WAVCIS:CSI16:1,2011-02-03T03:00:00Z,29.4012,-89.0355,1.0,32.132,11111222 
WAVCIS,ioos:station:WAVCIS:CSI16:1,2011-02-03T03:15:00Z,29.4012,-89.0355,1.0,32.156,11111222 
WAVCIS,ioos:station:WAVCIS:CSI16:1,2011-02-03T03:30:00Z,29.4012,-89.0355,1.0,32.227,11111222 
WAVCIS,ioos:station:WAVCIS:CSI16:1,2011-02-03T03:45:00Z,29.4012,-89.0355,1.0,32.293,11111222 
WAVCIS,ioos:station:WAVCIS:CSI16:1,2011-02-03T04:00:00Z,29.4012,-89.0355,1.0,32.299,11111222 
WAVCIS,ioos:station:WAVCIS:CSI16:1,2011-02-03T04:15:00Z,29.4012,-89.0355,1.0,32.289,11111222 
WAVCIS,ioos:station:WAVCIS:CSI16:1,2011-02-03T04:30:00Z,29.4012,-89.0355,1.0,32.322,11111222 
WAVCIS,ioos:station:WAVCIS:CSI16:1,2011-02-03T04:45:00Z,29.4012,-89.0355,1.0,32.359,11111222 
WAVCIS,ioos:station:WAVCIS:CSI16:1,2011-02-03T05:00:00Z,29.4012,-89.0355,1.0,32.384,11111222 
WAVCIS,ioos:station:WAVCIS:CSI16:1,2011-02-03T05:15:00Z,29.4012,-89.0355,1.0,32.359,11111222 
WAVCIS,ioos:station:WAVCIS:CSI16:1,2011-02-03T05:30:00Z,29.4012,-89.0355,1.0,32.296,11111222 
WAVCIS,ioos:station:WAVCIS:CSI16:1,2011-02-03T05:45:00Z,29.4012,-89.0355,1.0,32.374,11111222 
WAVCIS,ioos:station:WAVCIS:CSI16:1,2011-02-03T06:00:00Z,29.4012,-89.0355,1.0,32.356,11111222 
WAVCIS,ioos:station:WAVCIS:CSI16:1,2011-02-03T06:15:00Z,29.4012,-89.0355,1.0,32.375,11111222 
WAVCIS,ioos:station:WAVCIS:CSI16:1,2011-02-03T06:30:00Z,29.4012,-89.0355,1.0,32.478,11111222 
WAVCIS,ioos:station:WAVCIS:CSI16:1,2011-02-03T06:45:00Z,29.4012,-89.0355,1.0,32.535,11111222 
WAVCIS,ioos:station:WAVCIS:CSI16:1,2011-02-03T07:00:00Z,29.4012,-89.0355,1.0,32.505,11111222 
WAVCIS,ioos:station:WAVCIS:CSI16:1,2011-02-03T07:15:00Z,29.4012,-89.0355,1.0,32.624,11111222 
WAVCIS,ioos:station:WAVCIS:CSI16:1,2011-02-03T07:30:00Z,29.4012,-89.0355,1.0,32.587,11111222 
WAVCIS,ioos:station:WAVCIS:CSI16:1,2011-02-03T07:45:00Z,29.4012,-89.0355,1.0,32.595,11111222 
WAVCIS,ioos:station:WAVCIS:CSI16:1,2011-02-03T08:00:00Z,29.4012,-89.0355,1.0,32.576,11111222 
WAVCIS,ioos:station:WAVCIS:CSI16:1,2011-02-03T08:15:00Z,29.4012,-89.0355,1.0,32.64,11111222 
WAVCIS,ioos:station:WAVCIS:CSI16:1,2011-02-03T08:30:00Z,29.4012,-89.0355,1.0,32.67,11111222 
WAVCIS,ioos:station:WAVCIS:CSI16:1,2011-02-03T08:45:00Z,29.4012,-89.0355,1.0,32.687,11111222 
WAVCIS,ioos:station:WAVCIS:CSI16:1,2011-02-03T09:00:00Z,29.4012,-89.0355,1.0,32.701,11111222 
WAVCIS,ioos:station:WAVCIS:CSI16:1,2011-02-03T09:15:00Z,29.4012,-89.0355,1.0,32.739,11111222 
WAVCIS,ioos:station:WAVCIS:CSI16:1,2011-02-03T09:30:00Z,29.4012,-89.0355,1.0,32.794,11111222 
WAVCIS,ioos:station:WAVCIS:CSI16:1,2011-02-03T09:45:00Z,29.4012,-89.0355,1.0,32.763,11111222 
WAVCIS,ioos:station:WAVCIS:CSI16:1,2011-02-03T10:00:00Z,29.4012,-89.0355,1.0,32.616,11111222 
WAVCIS,ioos:station:WAVCIS:CSI16:1,2011-02-03T10:15:00Z,29.4012,-89.0355,1.0,32.487,11111222 
WAVCIS,ioos:station:WAVCIS:CSI16:1,2011-02-03T10:30:00Z,29.4012,-89.0355,1.0,32.336,11111222 
WAVCIS,ioos:station:WAVCIS:CSI16:1,2011-02-03T10:45:00Z,29.4012,-89.0355,1.0,32.187,11111222 
WAVCIS,ioos:station:WAVCIS:CSI16:1,2011-02-03T11:00:00Z,29.4012,-89.0355,1.0,32.102,11111222 
WAVCIS,ioos:station:WAVCIS:CSI16:1,2011-02-03T11:15:00Z,29.4012,-89.0355,1.0,31.993,11111222 
WAVCIS,ioos:station:WAVCIS:CSI16:1,2011-02-03T11:30:00Z,29.4012,-89.0355,1.0,31.93,11111222 
WAVCIS,ioos:station:WAVCIS:CSI16:1,2011-02-03T11:45:00Z,29.4012,-89.0355,1.0,31.888,11111222 
WAVCIS,ioos:station:WAVCIS:CSI16:1,2011-02-03T12:00:00Z,29.4012,-89.0355,1.0,31.841,11111222 
WAVCIS,ioos:station:WAVCIS:CSI16:1,2011-02-03T12:15:00Z,29.4012,-89.0355,1.0,31.849,11111222 
WAVCIS,ioos:station:WAVCIS:CSI16:1,2011-02-03T12:30:00Z,29.4012,-89.0355,1.0,31.827,11111222 
WAVCIS,ioos:station:WAVCIS:CSI16:1,2011-02-03T12:45:00Z,29.4012,-89.0355,1.0,31.815,11111222 
WAVCIS,ioos:station:WAVCIS:CSI16:1,2011-02-03T13:00:00Z,29.4012,-89.0355,1.0,31.796,11111222 
WAVCIS,ioos:station:WAVCIS:CSI16:1,2011-02-03T13:15:00Z,29.4012,-89.0355,1.0,31.782,11111222 
WAVCIS,ioos:station:WAVCIS:CSI16:1,2011-02-03T13:30:00Z,29.4012,-89.0355,1.0,31.765,11111222 
WAVCIS,ioos:station:WAVCIS:CSI16:1,2011-02-03T13:45:00Z,29.4012,-89.0355,1.0,31.821,11111222 
WAVCIS,ioos:station:WAVCIS:CSI16:1,2011-02-03T14:00:00Z,29.4012,-89.0355,1.0,31.807,11111222 
WAVCIS,ioos:station:WAVCIS:CSI16:1,2011-02-03T14:15:00Z,29.4012,-89.0355,1.0,31.908,11111222 
WAVCIS,ioos:station:WAVCIS:CSI16:1,2011-02-03T14:30:00Z,29.4012,-89.0355,1.0,31.998,11111222 
WAVCIS,ioos:station:WAVCIS:CSI16:1,2011-02-03T14:45:00Z,29.4012,-89.0355,1.0,31.961,11111222 
WAVCIS,ioos:station:WAVCIS:CSI16:1,2011-02-03T15:00:00Z,29.4012,-89.0355,1.0,31.916,11111222 
WAVCIS,ioos:station:WAVCIS:CSI16:1,2011-02-03T15:15:00Z,29.4012,-89.0355,1.0,31.959,11111222 